カタログに戻る

STARLINK-30197

運用中通信VLEO
NORAD 57443·PAYLOAD·🇺🇸 United States

打ち上げ Jul 24, 2023 から Cape Canaveral Space Force Station

Loading…

次のパス (今後24時間)

TLE

最新Source: CelesTrak SupGP

元期: Sep 14, 2026, 22:10 UTC

1 57443C 23105P   26257.92409722  .00031981  00000+0  11583-2 0  2579
2 57443  42.9997 271.0215 0001518 263.9277 120.5728 15.27563465    14

AllMySatでSTARLINK-30197をリアルタイム追跡

Download on the App Store